FW5715 Weather Reports


Display with metric or nautical units.
time (UTC)temp
F
wind
direction
speed
MPH
gust
MPH
rain 1hr
in
rain 24hr
in
rain mn
in
humidity
%
barometer
mb
20260509234516 52 270 7.0 15.0 0.22 0.42 0.30 91 1008.0
20260509233516 52 315 8.0 14.0 0.17 0.37 0.25 89 1007.6
20260509232516 53 338 18.0 28.0 0.06 0.26 0.14 85 1007.1
20260509231536 63 338 4.0 24.0 0.00 0.20 0.08 67 1006.3
20260509230516 64 180 2.0 7.0 0.00 0.20 0.08 64 1005.2
20260509225515 63 203 6.0 11.0 0.00 0.20 0.08 63 1005.2
20260509224536 64 203 3.0 9.0 0.00 0.20 0.08 64 1005.1
20260509223536 64 180 4.0 11.0 0.00 0.20 0.08 64 1005.1
20260509222516 64 180 7.0 18.0 0.00 0.20 0.08 64 1004.7
20260509221536 64 180 8.0 12.0 0.00 0.20 0.08 64 1004.7
20260509220556 64 203 5.0 15.0 0.00 0.20 0.08 62 1004.6
20260509215516 64 203 9.0 19.0 0.00 0.20 0.08 62 1004.6
20260509214516 64 180 8.0 16.0 0.00 0.20 0.08 64 1004.8
20260509213521 64 203 7.0 19.0 0.00 0.20 0.08 63 1004.7
20260509212517 64 180 10.0 26.0 0.00 0.20 0.08 60 1004.7
20260509211518 66 180 8.0 19.0 0.00 0.20 0.08 61 1004.8
20260509210518 65 203 5.0 17.0 0.00 0.20 0.08 58 1004.9
20260509205517 65 203 9.0 21.0 0.00 0.20 0.08 58 1005.0
20260509204518 65 225 6.0 18.0 0.00 0.20 0.08 60 1005.1
20260509203517 65 203 5.0 19.0 0.00 0.20 0.08 63 1005.3
20260509202538 64 203 5.0 24.0 0.00 0.20 0.08 62 1005.6
20260509201518 65 203 7.0 18.0 0.00 0.20 0.08 63 1005.8
20260509200538 64 203 9.0 20.0 0.00 0.20 0.08 61 1005.9
20260509195518 65 203 10.0 19.0 0.00 0.20 0.08 64 1006.0
20260509194517 64 203 4.0 19.0 0.00 0.20 0.08 66 1006.2
20260509193518 63 180 14.0 26.0 0.00 0.20 0.08 67 1006.3
20260509192518 63 203 4.0 13.0 0.00 0.20 0.08 65 1006.6
20260509191517 64 180 9.0 25.0 0.00 0.20 0.08 67 1006.4
20260509190518 63 203 12.0 23.0 0.00 0.20 0.08 69 1006.4
20260509185517 63 203 7.0 18.0 0.00 0.20 0.08 69 1006.6
20260509184517 63 180 8.0 17.0 0.00 0.20 0.08 69 1006.7
20260509183517 63 203 3.0 13.0 0.00 0.20 0.08 71 1006.8
20260509182518 63 180 7.0 17.0 0.00 0.20 0.08 70 1006.7
20260509181537 62 180 9.0 18.0 0.00 0.20 0.08 69 1006.8
20260509180517 63 180 6.0 20.0 0.00 0.20 0.08 72 1007.0
20260509175517 61 203 8.0 17.0 0.00 0.20 0.08 76 1006.7
20260509174517 61 180 7.0 14.0 0.00 0.20 0.08 76 1006.8
20260509173517 60 180 8.0 12.0 0.00 0.20 0.08 79 1007.0
20260509172537 60 180 10.0 16.0 0.00 0.20 0.08 82 1006.9
20260509171517 60 180 9.0 15.0 0.00 0.20 0.08 84 1007.1
20260509170517 59 180 3.0 7.0 0.00 0.20 0.08 84 1007.3
20260509165538 58 180 4.0 12.0 0.00 0.20 0.08 86 1007.3
20260509164517 57 180 5.0 11.0 0.00 0.20 0.08 87 1007.4
20260509163538 56 180 7.0 13.0 0.00 0.20 0.08 87 1007.5
20260509162517 56 180 6.0 13.0 0.00 0.20 0.08 87 1007.5
20260509161537 56 203 3.0 7.0 0.00 0.20 0.08 89 1007.5
20260509160537 55 180 7.0 13.0 0.00 0.20 0.08 90 1007.5
20260509155517 55 203 5.0 11.0 0.00 0.20 0.08 91 1007.6
20260509154518 54 180 4.0 10.0 0.00 0.20 0.08 92 1007.4
20260509153517 54 180 3.0 5.0 0.00 0.20 0.08 92 1007.6
20260509152537 53 203 2.0 6.0 0.00 0.20 0.08 92 1007.8
20260509151517 53 180 1.0 4.0 0.00 0.20 0.08 92 1007.8
20260509150517 53 203 4.0 8.0 0.00 0.20 0.08 92 1007.5
20260509145517 53 180 4.0 11.0 0.00 0.20 0.08 93 1007.6
20260509144517 53 180 4.0 11.0 0.00 0.20 0.08 93 1007.6
20260509143517 52 180 4.0 9.0 0.00 0.20 0.08 93 1007.4
20260509142517 52 180 4.0 8.0 0.00 0.20 0.08 93 1007.5
20260509141517 52 180 4.0 10.0 0.00 0.20 0.08 93 1007.5
20260509140517 52 180 3.0 7.0 0.00 0.20 0.08 93 1007.4
20260509135517 51 180 4.0 9.0 0.00 0.20 0.08 93 1007.5
20260509134518 51 180 5.0 11.0 0.00 0.20 0.08 93 1007.3
20260509133517 51 203 5.0 10.0 0.00 0.20 0.08 94 1007.5
20260509132517 51 203 4.0 9.0 0.00 0.20 0.08 94 1007.6
20260509131517 51 203 5.0 11.0 0.00 0.20 0.08 94 1007.6
20260509130517 51 180 3.0 6.0 0.00 0.20 0.08 94 1007.6
20260509125517 50 203 5.0 9.0 0.00 0.20 0.08 94 1007.6
20260509124517 50 203 4.0 9.0 0.00 0.20 0.08 94 1007.8
20260509123558 50 203 5.0 11.0 0.00 0.20 0.08 94 1008.0
20260509122537 50 203 5.0 9.0 0.00 0.20 0.08 94 1008.2
20260509121517 50 180 6.0 11.0 0.00 0.20 0.08 94 1008.2
20260509120517 50 203 3.0 6.0 0.00 0.20 0.08 94 1008.4
20260509115517 50 180 4.0 6.0 0.00 0.20 0.08 94 1008.3
20260509114517 49 203 4.0 7.0 0.00 0.20 0.08 94 1008.4
20260509113517 49 180 4.0 6.0 0.00 0.20 0.08 94 1008.4
20260509112517 49 180 4.0 7.0 0.00 0.20 0.08 94 1008.5
20260509111517 49 180 6.0 9.0 0.00 0.20 0.08 94 1008.3
20260509110517 49 180 5.0 8.0 0.00 0.20 0.08 94 1008.1
20260509105537 49 180 5.0 9.0 0.00 0.20 0.08 94 1008.2
20260509104557 49 180 5.0 7.0 0.00 0.20 0.08 94 1008.2
20260509103517 49 180 4.0 8.0 0.00 0.20 0.08 94 1008.2
20260509102517 49 180 4.0 7.0 0.00 0.20 0.08 94 1008.2
20260509101517 49 180 4.0 6.0 0.00 0.20 0.08 94 1008.4
20260509100517 49 180 5.0 9.0 0.00 0.20 0.08 94 1008.3
20260509095517 49 180 5.0 9.0 0.00 0.20 0.08 94 1008.6
20260509094517 49 180 5.0 9.0 0.01 0.20 0.08 94 1008.7
20260509093517 49 180 3.0 8.0 0.01 0.20 0.08 94 1008.7
20260509092537 49 180 4.0 8.0 0.01 0.20 0.08 94 1008.7
20260509091517 49 180 4.0 11.0 0.01 0.20 0.08 94 1008.7
20260509090517 49 203 1.0 6.0 0.01 0.20 0.08 94 1008.8
20260509085516 49 180 3.0 7.0 0.01 0.20 0.08 94 1008.8
20260509084517 49 180 4.0 8.0 0.00 0.19 0.07 94 1008.7
20260509083516 49 180 3.0 8.0 0.00 0.19 0.07 94 1008.8
20260509082517 49 180 4.0 7.0 0.00 0.19 0.07 94 1008.9
20260509081517 49 180 2.0 7.0 0.01 0.19 0.07 94 1009.0
20260509080518 49 180 2.0 6.0 0.01 0.19 0.07 94 1008.9
20260509075537 49 180 1.0 4.0 0.01 0.19 0.07 94 1008.9
20260509074517 49 0.0 0.0 0.01 0.19 0.07 94 1009.0
20260509073517 49 180 2.0 5.0 0.01 0.19 0.07 94 1009.1
20260509072517 49 180 1.0 3.0 0.01 0.19 0.07 94 1009.1
20260509071517 49 180 3.0 9.0 0.00 0.18 0.06 94 1008.9
20260509070517 49 180 4.0 8.0 0.01 0.18 0.06 94 1009.0
20260509065537 49 180 2.0 6.0 0.02 0.18 0.06 94 1009.1
20260509064516 49 0.0 3.0 0.03 0.18 0.06 94 1009.2
20260509063537 49 180 6.0 10.0 0.04 0.18 0.06 94 1009.2
20260509062537 49 180 3.0 7.0 0.05 0.18 0.06 93 1009.4
20260509061516 49 180 4.0 7.0 0.05 0.18 0.06 93 1009.5
20260509060517 49 180 4.0 6.0 0.04 0.17 0.05 93 1009.6
20260509055517 49 180 4.0 9.0 0.03 0.16 0.04 93 1009.8
20260509054517 49 203 2.0 7.0 0.02 0.15 0.03 93 1009.9
20260509053517 49 180 7.0 14.0 0.02 0.14 0.02 93 1009.9
20260509052516 49 203 6.0 12.0 0.01 0.13 0.01 93 1010.1
20260509051516 49 180 6.0 12.0 0.01 0.13 0.01 93 1010.1
20260509050536 49 203 4.0 10.0 0.01 0.13 0.01 93 1010.4
20260509045516 49 203 4.0 10.0 0.01 0.13 0.01 93 1010.4
20260509044517 49 180 4.0 9.0 0.01 0.13 0.01 93 1010.5
20260509043516 49 180 4.0 6.0 0.00 0.12 0.00 93 1010.4
20260509042516 49 180 5.0 8.0 0.00 0.12 0.00 93 1010.6
20260509041516 49 180 5.0 9.0 0.00 0.12 0.00 93 1010.7
20260509040516 49 180 5.0 9.0 0.00 0.12 0.00 93 1010.7
20260509035516 49 203 6.0 14.0 0.00 0.12 0.12 93 1010.9
20260509034516 49 180 4.0 8.0 0.00 0.12 0.12 93 1010.8
20260509033516 49 180 6.0 9.0 0.01 0.12 0.12 93 1010.7
20260509032536 49 180 5.0 9.0 0.01 0.12 0.12 93 1010.8
20260509031516 49 180 4.0 8.0 0.03 0.12 0.12 93 1010.9
20260509030516 49 180 3.0 6.0 0.05 0.12 0.12 93 1011.0
20260509025516 49 180 3.0 6.0 0.07 0.12 0.12 93 1011.0
20260509024536 49 180 3.0 5.0 0.08 0.12 0.12 93 1011.2
20260509023516 49 180 3.0 5.0 0.09 0.11 0.11 92 1011.2
20260509022516 49 180 1.0 5.0 0.10 0.11 0.11 92 1011.2
20260509021516 49 180 2.0 6.0 0.08 0.09 0.09 92 1011.3
20260509020516 49 180 2.0 5.0 0.07 0.07 0.07 92 1011.3
20260509015516 49 180 2.0 6.0 0.05 0.05 0.05 91 1011.4
20260509014516 49 180 3.0 9.0 0.04 0.04 0.04 91 1011.3
20260509013516 49 180 3.0 8.0 0.02 0.02 0.02 91 1011.1
20260509012516 49 180 5.0 10.0 0.01 0.01 0.01 90 1010.9
20260509011516 50 180 5.0 10.0 0.01 0.01 0.01 89 1010.8
20260509010516 50 180 7.0 13.0 0.00 0.00 0.00 88 1010.9
20260509005536 51 203 7.0 16.0 0.00 0.00 0.00 86 1010.9
20260509004536 52 180 6.0 11.0 0.00 0.00 0.00 84 1010.7
20260509003516 52 180 5.0 8.0 0.00 0.00 0.00 82 1010.8
20260509002516 52 180 6.0 12.0 0.00 0.00 0.00 81 1010.8
20260509001536 52 180 5.0 10.0 0.00 0.00 0.00 80 1010.7
20260509000516 53 0.0 4.0 0.00 0.00 0.00 76 1010.8
20260508235516 53 0.0 0.0 0.00 0.00 0.00 74 1010.8